Current weather by "City, St" or "zip code"  
 
Advertise Here

Current Conditions: SCHELL AHP, AL

Overcast


67.0 F

Last Updated on Feb 28 2021, 6:58 am CST
Humidity: 95%
Wind Speed: N 0.0 mph
Barometer 30.15 in
Dewpoint: 65.3 F
Visibility: 10.00 mi
Precip: --
Heat Index: NA
Wind Chill: NA
Current conditions at:

SCHELL AHP, AL (KSXS)

Lat: 31.35 Lon: 85.85

Local Radar Image active severe weather and emergency alerts image image weather storm and storm spotter reports image weather observation monitoring service image
Local
Radar
Active
Alerts
Storm Reports Obs
Monitoring

Sign-up For Email & Text Message Weather Alert Notification Services


Advertise Here

Observation History for SCHELL AHP, AL


Time Wind
(mph)
Vis
(mi)
Weather Precip (in) Temperature (F) Relative
Humidity
Wind
Chill
(F)
Heat
Index
(F)
Pressure
Air Dwpt altimeter
(in)
sea level
(mb)
Rmks
6:58 am CST N 0.0 10.00 Overcast -- 67.0 65.3 95% NA NA 30.15 1020.9
5:58 am CST S 4.6 10.00 Overcast -- 66.0 64.4 94% NA NA 30.14 1020.6
4:58 am CST S 5.8 9.00 Overcast -- 66.0 64.4 94% NA NA 30.11 1019.5
3:58 am CST S 5.8 10.00 Mostly Cloudy -- 67.0 64.9 93% NA NA 30.11 1019.5
2:58 am CST S 6.9 9.00 Overcast -- 67.0 65.8 95% NA NA 30.11 1019.5
1:58 am CST S 5.8 9.00 Overcast -- 67.0 65.5 95% NA NA 30.12 1019.9
12:58 am CST S 4.6 9.00 Overcast -- 67.0 65.3 93% NA NA 30.12 1019.9
11:58 pm CST S 5.8 10.00 Overcast -- 68.0 64.9 91% NA NA 30.14 1020.6
10:58 pm CST S 3.5 10.00 Overcast -- 66.0 64.4 94% NA NA 30.15 1020.9
9:58 pm CST S 4.6 10.00 Partly Cloudy -- 67.0 63.0 88% NA NA 30.15 1021.0
8:58 pm CST S 4.6 10.00 Fair -- 68.0 62.1 82% NA NA 30.16 1021.3
7:58 pm CST S 5.8 10.00 Fair -- 70.0 61.7 75% NA NA 30.14 1020.6
6:58 pm CST SW 4.6 10.00 Fair -- 72.0 60.8 67% NA NA 30.14 1020.6
5:58 pm CST S 5.8 10.00 Fair -- 74.0 59.4 60% NA NA 30.12 1019.9
4:58 pm CST S 9.2 10.00 A Few Clouds -- 77.0 61.3 59% NA NA 30.09 1018.9
3:58 pm CST S 4.6 9.00 A Few Clouds -- 76.0 65.5 69% NA NA 30.09 1018.9
2:58 pm CST S 4.6 10.00 A Few Clouds -- 78.0 65.1 65% NA NA 30.11 1019.6
1:58 pm CST S 9.2 10.00 A Few Clouds -- 77.0 65.5 69% NA NA 30.11 1019.6
12:58 pm CST S 6.9 10.00 Partly Cloudy -- 76.0 65.3 70% NA NA 30.14 1020.6
11:58 am CST S 6.9 10.00 Mostly Cloudy -- 73.0 66.2 78% NA NA 30.16 1021.3
10:58 am CST S 6.9 10.00 Overcast -- 70.0 65.5 85% NA NA 30.18 1022.0
9:58 am CST N 0.0 10.00 Overcast -- 66.0 64.6 95% NA NA 30.19 1022.3
8:58 am CST SE 3.5 2.25 Fog/Mist -- 63.0 62.4 98% NA NA 30.17 1021.7
7:58 am CST N 0.0 7.00 Overcast -- 61.0 61.0 99% NA NA 30.17 1021.7

Regional Weather Observation


Enterprise Municipal Airport, AL (KEDN)

Overcast
66.0 F

SCHELL AHP, AL (KSXS)

Overcast
67.0 F

Fort Rucker, Lowe Army Heliport, AL (KLOR)

Overcast
67.0 F

Andalusia, Andalusia-Opp Municipal Airport, AL (K79J)

Overcast
70.0 F

Cairns Army Air Field / Ozark, AL (KOZR)

Overcast
67.0 F

Hanchey AHP / Ozark, AL (KHEY)

Overcast
67.0 F
Advertise Here

Advertise Here